Regional Weather Roundup
Issued by NWS

Home | Current Version | Previous Version | Graphics & Text | Print | Product List | Glossary Off
Versions: 1 2 3 4 5 6 7 8 9 10 11 12 13 14 15 16 17 18 19 20 21 22 23 24 25 26 27 28 29 30 31 32 33 34 35 36 37 38 39 40 41 42 43 44 45 46 47 48 49 50

000
ASUS43 KMKX 220721
RWRWI

WISCONSIN REGIONAL WEATHER ROUNDUP
NATIONAL WEATHER SERVICE MILWAUKEE/SULLIVAN WI
200 AM CDT MON MAY 22 2017

NOTE: "FAIR" INDICATES FEW OR NO CLOUDS BELOW 12,000 FEET WITH NO
SIGNIFICANT WEATHER AND/OR OBSTRUCTIONS TO VISIBILITY.

WIZ001-002-006>008-014>016-023>028-220800-
NORTHWEST WISCONSIN

CITY           SKY/WX    TMP DP  RH WIND       PRES   REMARKS
SUPERIOR ARPT  NOT AVBL
ASHLAND        CLOUDY    47  44  90 SW12      29.78S
HAYWARD        CLOUDY    45  43  93 VRB7      29.81S FOG
SIREN          LGT RAIN  44  43  96 W7        29.85S
CUMBERLAND     DRIZZLE   43  41  93 W12       29.85S
RICE LAKE      LGT RAIN  44  42  93 W9        29.87S
CHETEK         LGT RAIN  44  43  97 W5        29.86S
LADYSMITH      RAIN      45  44  96 SW9       29.85S
EAU CLAIRE     LGT RAIN  45  43  93 W10       29.88S
MENOMONIE      DRIZZLE   44  44 100 SW8       29.89S
NEW RICHMOND   CLOUDY    44  43  97 W8        29.88S
OSCEOLA        DRIZZLE   45  45 100 SW7       29.91S
$$

WIZ003>005-009-010-017-018-220800-
NORTH CENTRAL WISCONSIN

CITY           SKY/WX    TMP DP  RH WIND       PRES   REMARKS
MANITOWISH WTR CLOUDY    45  45 100 W9G16     29.76F
ARBOR VITAE    CLOUDY    46  45  96 W9        29.76F
WOODRUFF       CLOUDY    46  45  96 W9        29.76F
RHINELANDER    CLOUDY    47  44  90 W12G20    29.79F
EAGLE RIVER    MIX PCPN  46  46 100 W6        29.76F
LAND O LAKES   CLOUDY    46  46  97 W3        29.77F
PHILLIPS       CLOUDY    44  44 100 W7        29.79F FOG
TOMAHAWK       CLOUDY    44  42  93 W5        29.80F
MEDFORD        DRIZZLE   42  41  95 W8G17     29.83S
MERRILL        CLOUDY    45  45 100 W9        29.82F
$$

WIZ029-030-035-036-043>047-220800-
CENTRAL WISCONSIN

CITY           SKY/WX    TMP DP  RH WIND       PRES   REMARKS
WAUSAU         CLOUDY    45  43  93 W12       29.82F
MOSINEE        CLOUDY    43  43 100 W13       29.85F FOG
MARSHFIELD     LGT RAIN  44  41  89 W9        29.85F FOG
STEVENS POINT  CLOUDY    43  42  97 SW10G18   29.86F FOG
WAUPACA        CLOUDY    49  42  78 W12       29.87F
WAUTOMA        CLOUDY    47  41  80 W15       29.89F
WISC RAPIDS    LGT RAIN  45  42  89 W7        29.89S
CAMP DOUGLAS   CLOUDY    46  39  76 W14       29.90F
$$

WIZ011>013-019>022-031-037>040-048>050-220800-
NORTHEAST WISCONSIN

CITY           SKY/WX    TMP DP  RH WIND       PRES   REMARKS
ANTIGO         CLOUDY    44  44 100 W14       29.81S FOG
SHAWANO        CLOUDY    48  45  87 SW9       29.84F
OCONTO         CLOUDY    48  43  83 W8        29.81F
STURGEON BAY   CLOUDY    49  44  83 SW13      29.82F
GREEN BAY      CLOUDY    48  46  93 W13G20    29.84F
MANITOWOC      CLOUDY    49  43  80 W9        29.86F
APPLETON       CLOUDY    46  39  76 W10       29.85F
CLINTONVILLE   CLOUDY    46  43  87 W14       29.85S
OSHKOSH        CLOUDY    48  42  80 W6        29.87F
$$

WIZ032>034-041-042-053>061-220800-
SOUTHWEST WISCONSIN

CITY           SKY/WX    TMP DP  RH WIND       PRES   REMARKS
LA CROSSE      PTCLDY    48  41  76 SW12      29.94S
SPARTA         CLOUDY    47  41  81 SW5       29.92S
VIROQUA        MOCLDY    44  41  88 SW12      29.94S
BOSCOBEL       CLEAR     48  41  76 SW6       29.97F
PRAIRIE DU CHI CLEAR     47  40  78 W7        29.97F
PLATTEVILLE    CLEAR     46  44  93 SW9       29.98S
$$

WIZ056-057-062-063-064-067-068-220800-
SOUTH CENTRAL WISCONSIN

CITY           SKY/WX    TMP DP  RH WIND       PRES   REMARKS
REEDSBURG      CLOUDY    47  39  74 W10       29.92S
BARABOO/DELLS  CLOUDY    47  37  70 W13G18    29.92S
LONE ROCK      CLOUDY    49  40  71 W8G22     29.95F
MINERAL POINT  PTCLDY    46  43  87 W9        29.96S
MADISON        CLOUDY    48  39  71 W9        29.93F
MIDDLETON      CLOUDY    49  40  69 W14G21    29.94S
WATERTOWN      CLOUDY    48  42  78 W9        29.93S
MONROE         PTCLDY    46  41  81 W16       29.97R
JANESVILLE     CLOUDY    50  43  76 W14       29.96S
$$

WIZ051-052-058>065-066-070>072-220800-
SOUTHEAST WISCONSIN

CITY           SKY/WX    TMP DP  RH WIND       PRES   REMARKS
MILWAUKEE      CLOUDY    51  43  74 W13       29.93F
WAUKESHA       CLOUDY    45  41  87 SW10      29.94F
MILWAUKEE/TIMM   N/A     46  41  81 W13       29.93F
RACINE         CLOUDY    50  41  71 W10       29.96F
KENOSHA        CLOUDY    50  42  74 W13       29.96S
FOND DU LAC    CLOUDY    49  40  71 W10       29.89F
SHEBOYGAN      CLOUDY    48  44  86 W16G24    29.88F
WEST BEND      CLOUDY    46  43  87 W12G18    29.91S
JUNEAU         CLOUDY    47  41  81 SW13G18   29.92S
$$

LSZ147-162-220800-
LAKE SUPERIOR

STATION/POSITION TIME  TEMP    WIND        PRES    WAVE
                       AIR SEA DIR/SP/G            HT/PER
                 (UTC) (F)     (DEG/KT/KT) (MB)    (FT/S)
W MID LAKE BUOY  0650   40 37  240/ 12/ 14 1007.0F   1/ 6
DEVILS ISLAND    0700   44     240/ 19/ 22 1007.5F
SAXON HARBOR     0630   49     230/  5/  9 1007.8S
$$

LMZ867-665-643>646-220800-
LAKE MICHIGAN

STATION/POSITION TIME  TEMP    WIND        PRES    WAVE
                       AIR SEA DIR/SP/G            HT/PER
                 (UTC) (F)     (DEG/KT/KT) (MB)    (FT/S)
CHAMBERS ISLAND  0640   49     200/  6/ 12 1008.8F
N MID LAKE BUOY  0650   42 38  210/ 12/ 16 1010.3F   3/ 4
NORTHPORT PIER   0640   50     240/  5/ 13 1009.1F
KEWAUNEE LAKESHO 0700   49     250/  9/ 16 1010.2
SHEBOYGAN LAKESH 0700   49     240/ 12/ 15 1011.8F
PORT WASHINGTON  0630   50     260/ 10/ 20 1013.2F
MILWAUKEE LAKESH 0700   50     250/ 13/ 16   N/A
S MID LAKE BUOY  0650   47 44  250/ 14/ 14 1014.7F   2/ 4
KENOSHA   LAKESH 0700   51     240/  7/ 15 1014.6
$$

TC  - TEMPERATURE IN CELSIUS
VSB - VISIBILITY IN STATUTE MILES
WCI - WIND CHILL INDEX
HX  - HEAT INDEX





USA.gov is the U.S. government's official web portal to all federal, state and local government web resources and services.